• Join FlightAware (Why Join?)
  • Login
  • US Flag 
07:40PM EST


 

Airport Tracker/Info


-or-


 

Live Flight TrackerFlight Track Log ✈ LYM613 ✈ 07-May-2012 ✈ KSLC - KISN

Flight Track Log - Related Links

Times and Time Zones

All times are in EDT time to prevent confusion due to time zone crossing. See the LYM613 flight status page for this flight to view local times or setup timezone preferences in your user account.

Time Position Orientation Groundspeed Altitude Reporting Facility
EDT Latitude Longitude Course Direction KTS MPH feet Rate Location/Type
02:23PM 40.8033 -111.9633 349° North 134 154 5,000  Level Salt Lake Center
02:24PM 40.8328 -111.9706 350° North 182 209 6,200 2,360 Climbing Salt Lake Center
02:25PM 40.8833 -111.9822 North 221 254 8,500 2,690 Climbing Salt Lake Center
02:26PM 40.9464 -111.9764 81° East 237 273 11,400 2,304 Climbing Salt Lake Center
02:27PM 40.9564 -111.8922 94° East 251 289 13,300 2,129 Climbing Salt Lake Center
02:28PM 40.9503 -111.7747 86° East 281 323 15,800 2,081 Climbing Salt Lake Center
02:29PM 40.9561 -111.6703 71° East 291 335 17,600 1,548 Climbing Salt Lake Center
02:30PM 40.9833 -111.5647 72° East 305 351 19,000 1,296 Climbing Salt Lake Center
02:31PM 41.0114 -111.4508 52° Northeast 323 372 20,300 1,440 Climbing Salt Lake Center
02:32PM 41.0697 -111.3514 35° Northeast 342 394 22,000 1,790 Climbing Salt Lake Center
02:33PM 41.1603 -111.2667 36° Northeast 338 389 24,000 1,742 Climbing Salt Lake Center
02:34PM 41.2378 -111.1931 35° Northeast 339 390 25,600 1,597 Climbing Salt Lake Center
02:35PM 41.3153 -111.1214 36° Northeast 338 389 27,300 1,597 Climbing Salt Lake Center
02:36PM 41.3883 -111.0517 35° Northeast 327 376 28,900 1,403 Climbing Salt Lake Center
02:37PM 41.4586 -110.9861 35° Northeast 312 359 30,200 1,016 Climbing Salt Lake Center
02:38PM 41.5392 -110.9106 35° Northeast 308 354 31,000 387 Climbing Salt Lake Center
02:39PM 41.6089 -110.8442 36° Northeast 315 362 31,000  Level Salt Lake Center
02:40PM 41.6811 -110.7744 35° Northeast 328 377 31,000  Level Salt Lake Center
02:42PM 41.7786 -110.6817 35° Northeast 334 384 31,000  Level Salt Lake Center
02:43PM 41.8614 -110.6044 35° Northeast 329 379 31,000  Level Salt Lake Center
02:44PM 41.9292 -110.5411 35° Northeast 317 365 31,000  Level Salt Lake Center
02:45PM 42.0067 -110.4672 36° Northeast 310 357 31,000  Level Salt Lake Center
02:46PM 42.0717 -110.4039 35° Northeast 305 351 31,000  Level Salt Lake Center
02:47PM 42.1389 -110.3394 36° Northeast 307 353 31,000  Level Salt Lake Center
02:48PM 42.2178 -110.2614 36° Northeast 311 358 31,000  Level Salt Lake Center
02:49PM 42.2850 -110.1942 35° Northeast 314 361 31,000  Level Salt Lake Center
02:50PM 42.3656 -110.1167 35° Northeast 316 364 31,000  Level Salt Lake Center
02:51PM 42.4350 -110.0511 37° Northeast 317 365 31,000  Level Salt Lake Center
02:52PM 42.5147 -109.9708 36° Northeast 319 367 31,000  Level Salt Lake Center
02:53PM 42.5828 -109.9044 36° Northeast 316 364 31,000  Level Salt Lake Center
02:54PM 42.6614 -109.8272 36° Northeast 313 360 31,000  Level Salt Lake Center
02:55PM 42.7275 -109.7611 36° Northeast 310 357 31,000  Level Salt Lake Center
02:56PM 42.8050 -109.6850 36° Northeast 308 354 31,000  Level Salt Lake Center
02:57PM 42.8711 -109.6183 36° Northeast 308 354 31,000  Level Salt Lake Center
02:58PM 42.9258 -109.5636 36° Northeast 307 353 31,000  Level Salt Lake Center
02:59PM 43.0150 -109.4753 36° Northeast 303 349 31,000  Level Salt Lake Center
03:00PM 43.0803 -109.4094 36° Northeast 304 350 31,000  Level Salt Lake Center
03:01PM 43.1564 -109.3331 37° Northeast 304 350 31,000  Level Salt Lake Center
03:02PM 43.2214 -109.2667 36° Northeast 304 350 31,000  Level Salt Lake Center
03:03PM 43.2978 -109.1894 36° Northeast 305 351 31,000  Level Salt Lake Center
03:04PM 43.3650 -109.1214 37° Northeast 311 358 31,000  Level Salt Lake Center
03:05PM 43.4439 -109.0406 37° Northeast 315 362 31,000  Level Salt Lake Center
03:06PM 43.5108 -108.9706 37° Northeast 316 364 31,000  Level Salt Lake Center
03:07PM 43.5900 -108.8894 37° Northeast 317 365 31,000  Level Salt Lake Center
03:08PM 43.6578 -108.8197 36° Northeast 317 365 31,000  Level Salt Lake Center
03:09PM 43.7364 -108.7394 37° Northeast 315 362 31,000  Level Salt Lake Center
03:11PM 43.8036 -108.6697 37° Northeast 315 362 31,000  Level Salt Lake Center
03:12PM 43.8822 -108.5889 37° Northeast 315 362 31,000  Level Salt Lake Center
03:13PM 43.9494 -108.5175 37° Northeast 316 364 31,000  Level Salt Lake Center
03:14PM 44.0167 -108.4475 37° Northeast 316 364 31,000  Level Salt Lake Center
03:15PM 44.0956 -108.3644 37° Northeast 317 365 31,000  Level Salt Lake Center
03:16PM 44.1625 -108.2936 37° Northeast 317 365 31,000  Level Salt Lake Center
03:17PM 44.2406 -108.2114 37° Northeast 316 364 31,000  Level Salt Lake Center
03:18PM 44.3072 -108.1406 37° Northeast 315 362 31,000  Level Salt Lake Center
03:19PM 44.3853 -108.0575 38° Northeast 316 364 31,000  Level Salt Lake Center
03:20PM 44.4514 -107.9858 37° Northeast 315 362 31,000  Level Salt Lake Center
03:21PM 44.5292 -107.9028 38° Northeast 316 364 31,000  Level Salt Lake Center
03:22PM 44.5953 -107.8314 38° Northeast 316 364 31,000  Level Salt Lake Center
03:23PM 44.6717 -107.7489 37° Northeast 314 361 31,000  Level Salt Lake Center
03:24PM 44.7450 -107.6719 38° Northeast 312 359 31,000  Level Salt Lake Center
03:25PM 44.8122 -107.5986 38° Northeast 309 356 31,000  Level Salt Lake Center
03:26PM 44.8875 -107.5169 38° Northeast 308 354 31,000  Level Salt Lake Center
03:27PM 44.9522 -107.4458 37° Northeast 308 354 31,000  Level Salt Lake Center
03:28PM 45.0272 -107.3650 38° Northeast 306 352 31,000  Level Salt Lake Center
03:29PM 45.0919 -107.2944 38° Northeast 306 352 31,000  Level Salt Lake Center
03:30PM 45.1672 -107.2122 38° Northeast 306 352 31,000  Level Salt Lake Center
03:31PM 45.2314 -107.1403 38° Northeast 307 353 31,000  Level Salt Lake Center
03:32PM 45.3064 -107.0569 38° Northeast 307 353 31,000  Level Salt Lake Center
03:33PM 45.3711 -106.9844 38° Northeast 308 354 31,000  Level Salt Lake Center
03:34PM 45.4364 -106.9117 38° Northeast 310 357 31,000  Level Salt Lake Center
03:35PM 45.5122 -106.8267 38° Northeast 311 358 31,000  Level Salt Lake Center
03:36PM 45.5781 -106.7533 38° Northeast 312 359 31,000  Level Salt Lake Center
03:37PM 45.6547 -106.6683 38° Northeast 313 360 31,000  Level Salt Lake Center
03:38PM 45.7208 -106.5950 38° Northeast 313 360 31,000  Level Salt Lake Center
03:42PM 45.9381 -106.3475 38° Northeast 311 358 31,000  Level Salt Lake Center
03:43PM 46.0031 -106.2753 38° Northeast 310 357 31,000  Level Salt Lake Center
03:44PM 46.0769 -106.1922 39° Northeast 305 351 31,000  Level Salt Lake Center
03:47PM 46.2781 -105.9581 39° Northeast 306 352 31,000  Level Salt Lake Center
03:52PM 46.6325 -105.5453 39° Northeast 314 361 31,000  Level Salt Lake Center
03:53PM 46.7144 -105.4483 39° Northeast 317 365 31,000  Level Salt Lake Center
03:54PM 46.7833 -105.3664 39° Northeast 318 366 31,000  Level Salt Lake Center
03:55PM 46.8517 -105.2856 39° Northeast 318 366 31,000  Level Salt Lake Center
03:56PM 46.9200 -105.2042 39° Northeast 318 366 31,000  Level Salt Lake Center
03:57PM 46.9883 -105.1222 38° Northeast 318 366 31,000 -387 Level Salt Lake Center
03:58PM 47.0578 -105.0419 40° Northeast 318 366 30,200 -1,306 Descending Salt Lake Center
03:59PM 47.1347 -104.9472 40° Northeast 309 356 28,300 -1,742 Descending Salt Lake Center
04:00PM 47.1997 -104.8661 39° Northeast 307 353 26,600 -1,645 Descending Salt Lake Center
04:01PM 47.2697 -104.7814 40° Northeast 314 361 24,900 -1,694 Descending Salt Lake Center
04:03PM 47.3422 -104.6928 40° Northeast 326 375 23,100 -1,790 Descending Salt Lake Center
04:04PM 47.4169 -104.6000 40° Northeast 338 389 21,200 -1,839 Descending Salt Lake Center
04:05PM 47.4942 -104.5036 40° Northeast 351 404 19,300 -2,032 Descending Salt Lake Center
04:06PM 47.5861 -104.3897 40° Northeast 357 411 17,000 -1,984 Descending Salt Lake Center
04:07PM 47.6586 -104.2994 40° Northeast 351 404 15,200 -1,694 Descending Salt Lake Center
04:08PM 47.7264 -104.2144 40° Northeast 332 382 13,500 -1,548 Descending Salt Lake Center
04:09PM 47.7897 -104.1344 40° Northeast 310 357 12,000 -1,452 Descending Salt Lake Center
04:10PM 47.8467 -104.0622 39° Northeast 281 323 10,500 -1,452 Descending Salt Lake Center
04:11PM 47.9069 -103.9883 40° Northeast 276 318 9,000 -1,403 Descending Salt Lake Center
04:12PM 47.9633 -103.9167 41° Northeast 272 313 7,600 -1,645 Descending Salt Lake Center
04:13PM 48.0161 -103.8492 41° Northeast 261 300 5,600 -1,935 Descending Salt Lake Center